Location: LDNL
(36.4545°S, 141.6685°E)
Time: 10:16:17
(UTC+11:00)

Courier 1B - Pass Details

Date: 13 February 2023
Orbit: 962 x 1209 km, 28.3° (Epoch: 21 March)

Event Time Altitude Azimuth Distance (km) Brightness Sun altitude
Rises 21:55:16 0° 303° (WNW) 3,667 10.9 -16.1°
Reaches altitude 10° 21:58:06 10° 312° (NW) 2,744 10.1 -16.5°
Maximum altitude 22:04:00 34° 15° (NNE) 1,621 8.3 -17.6°
Enters shadow 22:06:14 28° 49° (NE) 1,854 8.4 -17.9°
